Regional Weather Roundup
Issued by NWS Nashville, TN

Home | Current Version | Previous Version | Text Only | Print | Product List | Glossary On
Versions: 1 2 3 4 5 6 7 8 9 10 11 12 13 14 15 16 17 18 19 20 21 22 23 24 25 26 27 28 29 30 31 32 33 34 35 36 37 38 39 40 41 42 43 44 45 46 47 48 49 50
000
ASUS44 KOHX 300710
RWROHX
MIDDLE TENNESSEE HOURLY WEATHER ROUNDUP
NATIONAL WEATHER SERVICE NASHVILLE TN
200 AM CDT SAT APR 30 2016

NOTE: "FAIR" INDICATES FEW OR NO CLOUDS BELOW 12,000 FEET WITH
NO SIGNIFICANT WEATHER AND/OR OBSTRUCTIONS TO VISIBILITY.

* THESE REPORTS ARE NOT UNDER NWS QUALITY CONTROL AND MAY NOT
  REPORT WEATHER SUCH AS PRECIPITATION AND FOG.


TNZ005>011-023>034-057-059-062>066-078-080-300800
...NORTHERN MIDDLE TENNESSEE...

CITY           SKY/WX    TMP DP  RH WIND       PRES   REMARKS
CLARKSVILLE    CLOUDY    62  58  86 E5        29.92S
CROSSVILLE     PTCLDY    68  53  58 CALM      29.97F
NASHVILLE      CLOUDY    65  60  84 CALM      29.91F
SMYRNA         PTCLDY    64  61  90 CALM      29.92F
SPARTA         PTCLDY    59  57  94 CALM      29.92F
$$
TNZ056-058-060-061-075>077-079-093>097-300800
...SOUTHERN MIDDLE TENNESSEE...

CITY           SKY/WX    TMP DP  RH WIND       PRES   REMARKS
COLUMBIA         N/A    N/A N/A N/A CALM      29.90R
FAYETTEVILLE   CLEAR     64  57  77 S7        29.90F
MCMINNVILLE    PTCLDY    61  59  94 N3        29.93S
SHELBYVILLE    CLOUDY    63  61  94 N3        29.92S
TULLAHOMA      MOCLDY    59  59 100 CALM      29.93S
WINCHESTER     MOCLDY    64  55  72 CALM      29.92R
$$


...KEY TO REMARKS...
VSB - VISIBILITY IN MILES
WCI - WIND CHILL INDEX
HX  - HEAT INDEX




USA.gov is the U.S. government's official web portal to all federal, state and local government web resources and services.